TIANTUO 2 (40144 NORAD) Tracking and Keplerian Element Data

This shows tracking and keplerian element data for the satellite.

Feedback or suggestion? Click here.




ElementValue
Catalog40144
NameTIANTUO 2
Epoch Orbit23816
Epoch Day345.84415727
Epoch Year2018
RAAN67.1275
Inclination97.2889
Eccentricity0.0013032
Argument of Perigee126.593
Mean Anonmoly328.8414
Mean Motion15.3410997
Decay Rate7.85E-06
L11 40144U 14053B 18345.84415727 .00000785 00000-0 26086-4 0 9991
L22 40144 97.2889 67.1275 0013032 126.5930 328.8414 15.34109970238160

Live tracking and technical data element details for TIANTUO 2 (NORAD 40144). TIANTUO 2 can be tracked NOW for your location showing map with azimuth and elevation plus other details from your city location.

Track the satellite on the map from your city or location and see movement details for azimuth, elevation, latitude, longitude, range, height, and movement on the map or in text.







IsCatalogInMostPopularTable: catalog: 40144, numindb: 84
Update: records affected: 1



GetName: 40144 TIANTUO 2

Hit Count: updated at: Thu, 13 Dec 2018 03:27:05 GMT